{"data":{"norad_id":65699,"epoch":"2026-09-20T05:57:58.343616Z","epoch_age_seconds":130223,"freshness":"FRESH","line1":"1 65699U 25212Z   26263.24859194  .00016141  00000+0  53039-3 0  9993","line2":"2 65699  53.1594 161.0993 0001114  81.4726 278.6402 15.31722655 56993","mean_motion":15.31722655,"eccentricity":0.0001114,"inclination_deg":53.1594,"raan_deg":161.0993,"arg_perigee_deg":81.4726,"mean_anomaly_deg":278.6402,"bstar":0.00053039,"rev_number":5699,"period_min":94.011797455591,"perigee_km":469.90950530776,"apogee_km":471.43542005604,"semimajor_km":6848.8094626819,"source":"CELESTRAK","updated_at":"2026-09-21T09:00:35.689931Z"}}